Wind_Speed
100 93 82 82 84 84 82 76 73 71 72 68 67 70 71 70 63 64 64 65 63 63 65 63 62 63 63 63 63 65 64 63 63 65 66 67 67 67 68 69 69 70 70 70
105 94 92 92 88 86 87 81 78 79 78 73 71 68 73 72 69 68 67 67 67 67 67 68 68 67 67 69 71 71 70 69 69 70 70 71 71 73 74 74 74 74 69 64
100 98 102 98 92 89 87 86 85 84 85 81 78 67 65 74 72 70 70 72 73 75 75 73 72 72 71 71 72 73 74 74 73 76 75 75 75 76 78 77 69 67 69 71
107 104 101 102 98 93 92 89 88 85 87 86 82 73 69 65 73 75 75 78 81 81 79 77 78 78 78 76 75 76 77 75 72 71 72 71 66 64 66 68 72 74 73 75
113 103 104 101 104 101 94 97 97 93 90 88 84 82 65 66 65 75 84 83 83 85 84 82 80 80 81 82 78 73 71 71 71 70 70 68 66 66 69 71 73 74 77 78
111 111 109 102 102 108 102 101 101 101 98 94 88 86 74 69 69 75 81 85 85 85 85 85 83 81 80 78 77 76 74 74 74 73 73 71 70 70 70 71 72 75 78 82
116 113 111 110 106 106 105 104 106 105 102 94 94 96 77 78 76 76 79 81 82 83 82 82 82 80 81 81 81 82 83 82 82 81 79 78 78 78 78 80 81 81 84 88
122 116 115 113 111 114 111 113 112 111 106 102 103 94 84 85 85 84 85 84 83 85 84 83 82 82 84 86 87 88 89 90 91 90 88 88 87 87 88 89 91 92 93 93
124 123 120 117 115 116 115 116 115 114 111 107 102 92 90 90 91 93 93 90 91 89 89 89 88 90 92 93 95 95 94 93 92 91 92 93 94 97 98 98 97 99 99 100
123 124 126 124 122 120 118 117 117 118 118 114 106 103 97 97 98 99 99 98 96 95 96 96 96 97 98 98 99 100 101 101 100 99 99 99 101 103 103 104 104 104 104 103
123 124 123 122 123 124 125 124 123 123 123 119 114 105 100 100 102 103 103 106 106 104 103 103 103 103 102 102 103 104 104 103 102 102 103 103 104 105 105 105 105 104 105 108
123 124 123 123 122 122 126 125 127 124 120 123 120 108 105 105 105 108 111 109 111 111 111 114 114 107 105 105 107 108 107 106 106 106 107 108 108 109 109 110 110 111 111 112
123 125 121 120 122 121 120 120 122 123 125 124 122 106 107 112 113 113 111 116 117 117 119 120 119 116 116 115 110 109 109 110 110 111 112 112 112 114 114 115 115 115 117 119
124 127 125 119 121 122 123 125 127 129 128 118 125 112 108 110 113 113 115 117 118 120 122 120 119 121 120 118 115 115 115 115 115 116 116 116 116 117 118 120 123 124 125 126
119 129 127 125 123 124 124 126 128 129 125 131 121 124 111 113 113 117 117 118 121 124 124 122 124 124 122 122 122 122 121 121 121 122 123 124 124 125 125 126 127 127 128 128
120 121 124 127 126 128 130 130 128 129 129 131 128 130 115 118 123 121 122 125 125 124 122 124 124 125 125 125 126 128 127 128 127 127 129 131 130 130 130 130 130 132 133 135
117 119 121 122 122 127 133 127 131 130 129 132 136 130 131 126 123 125 130 133 131 130 132 133 132 131 131 133 134 134 136 136 137 136 137 137 137 136 137 138 139 141 142 141
114 117 119 115 122 132 125 127 128 132 132 134 139 140 137 135 134 133 136 136 136 139 140 139 138 141 141 140 139 140 141 142 142 140 141 141 142 142 143 144 145 144 144 144
113 115 117 121 124 128 126 120 128 135 138 140 138 138 140 137 140 136 132 140 143 144 144 143 144 143 143 142 143 142 141 141 142 142 144 146 147 146 146 146 147 146 145 142
118 115 119 122 125 132 121 124 129 136 138 131 139 141 141 141 142 136 134 136 142 146 148 150 151 151 150 149 151 151 150 151 150 151 152 151 150 149 148 148 146 145 144 142
122 122 122 121 126 128 126 132 134 136 132 135 137 139 139 140 143 142 142 141 142 142 144 145 145 146 147 146 147 148 148 148 148 148 148 150 150 148 150 148 145 147 147 147
124 125 129 131 133 133 131 133 136 136 135 135 135 136 139 140 141 142 141 142 142 141 144 146 147 149 150 151 152 153 153 154 154 157 159 158 156 155 157 155 153 153 155 155
112 119 128 134 133 133 131 132 133 136 136 137 137 141 145 146 147 148 148 150 150 150 149 146 144 144 146 148 150 149 150 151 153 154 156 156 155 154 156 154 155 154 152 153
92 100 106 112 113 121 121 123 129 132 133 135 139 140 140 141 144 146 149 152 155 153 150 149 141 138 139 143 146 149 152 155 156 157 157 157 158 158 158 157 156 151 148 149
85 87 90 85 84 88 89 94 97 100 102 104 108 112 115 117 120 122 125 128 131 133 133 132 130 128 129 129 131 134 137 137 139 141 142 143 143 144 143 144 144 139 133 132
64 64 63 61 72 75 79 84 87 90 93 97 99 101 104 106 108 110 112 115 116 117 118 118 119 117 116 117 118 116 118 120 122 126 130 132 133 133 132 134 134 130 128 126
Wind_Direction
237 232 228 231 228 228 228 232 232 236 245 246 249 244 244 246 244 245 248 250 252 254 256 256 257 258 259 260 263 265 266 268 270 272 273 274 276 278 279 280 281 283 286 287
239 230 233 234 233 231 230 230 234 236 238 237 245 248 246 245 247 247 249 252 253 255 256 256 255 256 259 262 264 267 269 269 270 273 275 277 276 277 279 280 281 283 286 283
232 232 232 234 234 235 237 235 234 238 242 238 232 232 249 251 250 252 251 253 254 254 255 257 258 259 260 261 264 267 269 270 270 273 276 276 276 278 279 281 285 281 282 282
232 233 231 232 236 236 237 238 239 242 243 244 244 230 234 246 253 252 253 252 254 257 259 258 259 259 261 265 268 270 272 275 276 278 279 281 280 279 278 280 281 281 283 284
231 233 236 234 235 237 237 239 238 240 243 243 246 240 239 250 248 254 252 253 255 257 258 260 261 264 266 269 270 268 268 269 269 270 270 272 274 274 275 278 280 282 283 283
230 232 236 239 236 238 237 239 240 241 240 241 245 249 232 248 253 254 255 256 258 260 262 264 264 265 266 266 265 265 264 266 268 269 270 272 272 273 274 278 281 282 283 284
231 230 233 235 238 239 240 241 241 242 243 243 246 247 240 241 249 252 255 258 258 260 261 262 264 263 263 265 265 266 266 267 268 270 271 271 271 272 273 275 276 278 281 283
231 232 234 235 236 238 240 239 242 243 242 242 244 245 247 245 247 252 253 254 257 259 259 260 261 263 264 265 265 266 268 269 270 272 274 274 273 273 274 275 277 280 280 282
232 232 234 235 236 238 240 242 244 247 247 244 242 242 245 250 250 250 253 255 256 257 258 260 263 264 263 263 264 266 267 269 270 272 273 274 275 275 276 278 278 279 280 282
235 235 236 236 238 240 241 243 245 248 248 248 245 244 244 250 252 252 253 254 256 258 258 260 262 264 265 266 267 268 269 271 272 272 273 275 277 278 280 283 283 284 285 286
235 236 237 239 239 241 242 243 246 248 249 248 247 246 247 250 252 255 254 254 255 256 258 258 260 262 265 266 267 269 270 271 273 274 276 277 279 281 282 283 283 284 285 286
234 236 237 240 241 242 244 246 247 250 252 252 250 246 249 251 253 254 255 257 258 258 260 261 261 262 262 265 267 268 270 271 273 275 276 277 279 280 280 281 282 284 285 286
235 236 237 239 242 245 246 247 248 250 251 252 253 251 253 253 254 255 256 256 258 259 261 261 262 263 264 265 266 268 270 272 274 276 277 278 279 280 280 281 283 284 285 285
236 236 238 240 241 243 245 247 248 250 252 256 256 256 255 255 256 257 256 257 258 260 259 260 262 263 265 266 269 271 273 274 275 276 277 277 278 279 280 281 281 282 284 286
237 238 239 239 240 243 245 247 250 252 255 256 257 258 255 257 256 257 259 260 260 260 261 263 264 264 267 269 271 272 273 275 276 276 278 278 279 280 281 282 282 283 284 285
238 239 240 241 243 244 245 246 250 254 255 256 257 258 257 257 259 260 261 261 261 263 265 266 266 268 269 271 272 273 274 274 276 277 278 278 278 279 280 281 281 282 283 284
239 240 242 242 244 246 247 249 250 251 254 257 257 257 256 256 256 259 261 263 264 266 266 267 268 269 270 271 271 272 272 274 275 276 277 277 277 277 277 278 279 280 282 284
239 242 243 244 245 247 249 249 251 254 254 256 257 258 259 259 257 258 261 262 263 265 267 268 269 270 271 271 271 271 272 273 274 275 275 275 276 277 278 279 280 281 283 284
242 243 245 246 246 248 248 250 252 253 255 256 259 261 261 261 262 262 264 265 266 266 266 267 268 269 270 270 271 272 272 273 274 274 275 275 276 278 278 279 280 281 282 281
245 245 245 247 249 252 252 252 253 254 255 258 259 260 262 263 263 262 261 264 266 267 268 269 270 271 272 273 274 275 276 275 276 275 276 276 277 276 277 277 279 280 281 283
245 246 248 250 251 252 253 254 255 256 258 258 260 262 264 265 266 266 266 265 266 267 269 270 270 271 272 272 272 273 274 274 274 274 275 275 277 277 278 279 280 281 282 283
245 247 248 248 250 251 252 254 257 259 260 262 264 267 267 268 269 270 271 270 268 268 268 269 269 269 269 270 271 271 272 271 272 273 273 274 275 276 276 277 278 278 279 281
245 247 248 250 253 255 257 258 260 262 264 266 266 266 267 268 269 270 271 271 271 271 271 270 269 270 271 271 271 271 272 271 272 272 273 274 274 275 276 277 278 278 278 279
246 247 249 252 254 257 260 262 263 264 265 266 267 268 269 270 271 271 271 271 272 272 273 273 272 271 269 268 268 269 270 271 270 270 270 271 271 271 273 273 275 277 277 278
252 255 257 262 265 266 268 267 266 266 266 266 267 267 267 267 268 269 270 271 272 273 273 273 273 272 271 270 270 270 270 271 271 271 272 272 273 273 274 275 277 277 277 277
249 255 261 262 260 259 262 265 267 267 268 269 269 270 271 271 270 271 272 272 273 274 274 275 275 275 275 274 273 271 269 269 269 270 271 272 273 274 274 275 276 276 276 277
Height
10648 10666 10686 10688 10688 10690 10701 10714 10724 10728 10730 10740 10749 10757 10755 10759 10774 10778 10778 10779 10784 10785 10785 10791 10792 10791 10790 10790 10788 10786 10789 10790 10790 10787 10786 10785 10784 10782 10780 10779 10777 10774 10772 10770
10634 10661 10664 10666 10677 10686 10693 10703 10713 10714 10711 10722 10730 10744 10748 10750 10761 10765 10768 10770 10771 10772 10771 10772 10776 10777 10778 10777 10776 10774 10776 10778 10778 10776 10775 10774 10772 10769 10766 10765 10763 10762 10760 10758
10624 10640 10644 10654 10665 10676 10685 10693 10694 10695 10696 10701 10714 10734 10742 10743 10749 10754 10757 10756 10756 10752 10753 10757 10762 10762 10763 10762 10762 10762 10762 10763 10764 10762 10762 10760 10759 10757 10753 10750 10748 10745 10744 10743
10609 10624 10634 10644 10655 10660 10670 10675 10675 10676 10679 10691 10700 10725 10728 10736 10741 10741 10741 10738 10734 10736 10740 10744 10743 10746 10745 10748 10749 10748 10748 10748 10748 10748 10746 10744 10743 10742 10738 10737 10733 10730 10727 10725
10605 10606 10615 10629 10638 10640 10656 10652 10654 10657 10663 10675 10692 10702 10731 10723 10727 10725 10719 10721 10723 10721 10722 10725 10728 10729 10730 10731 10733 10733 10732 10730 10730 10730 10730 10729 10728 10728 10724 10722 10719 10715 10711 10708
10588 10597 10607 10615 10620 10623 10632 10637 10641 10644 10649 10667 10679 10682 10721 10716 10712 10704 10702 10703 10704 10706 10707 10708 10710 10712 10712 10712 10713 10714 10715 10714 10714 10715 10714 10714 10713 10711 10708 10706 10703 10700 10696 10692
10568 10580 10586 10596 10602 10606 10616 10621 10619 10621 10632 10661 10661 10660 10709 10701 10697 10693 10686 10682 10686 10688 10690 10690 10691 10693 10694 10694 10694 10695 10696 10697 10697 10698 10699 10698 10696 10694 10691 10688 10685 10682 10679 10676
10554 10565 10573 10582 10586 10585 10589 10594 10596 10600 10617 10633 10639 10662 10685 10687 10682 10674 10669 10667 10667 10666 10669 10671 10673 10674 10674 10674 10674 10675 10677 10677 10678 10678 10679 10678 10677 10675 10673 10669 10667 10664 10660 10656
10530 10542 10549 10560 10560 10564 10573 10581 10583 10586 10598 10611 10629 10655 10666 10666 10664 10655 10651 10652 10649 10650 10651 10651 10652 10651 10652 10653 10653 10654 10655 10655 10657 10658 10657 10656 10655 10653 10650 10649 10646 10642 10639 10637
10509 10522 10527 10535 10543 10550 10560 10561 10564 10570 10576 10590 10615 10627 10646 10641 10641 10640 10638 10634 10633 10634 10633 10632 10631 10629 10629 10631 10632 10632 10633 10634 10635 10635 10635 10634 10632 10630 10628 10627 10624 10620 10616 10612
10484 10496 10504 10510 10530 10530 10535 10539 10541 10542 10547 10563 10588 10611 10624 10625 10621 10616 10616 10615 10613 10612 10610 10610 10608 10608 10610 10612 10611 10611 10611 10612 10612 10613 10612 10609 10608 10607 10604 10602 10598 10593 10590 10585
10460 10471 10488 10498 10507 10513 10516 10527 10522 10531 10544 10542 10554 10596 10602 10599 10598 10599 10594 10596 10594 10592 10591 10588 10586 10589 10590 10586 10586 10586 10589 10588 10589 10589 10587 10585 10585 10583 10580 10576 10573 10568 10563 10558
10445 10459 10472 10485 10491 10499 10507 10507 10506 10505 10504 10514 10527 10583 10575 10574 10576 10576 10577 10571 10567 10568 10569 10564 10564 10565 10563 10563 10565 10565 10565 10564 10565 10563 10562 10561 10560 10556 10554 10551 10546 10542 10537 10532
10421 10439 10458 10471 10466 10469 10477 10479 10480 10478 10484 10520 10504 10549 10554 10550 10548 10548 10545 10542 10540 10541 10537 10542 10544 10539 10540 10542 10544 10542 10541 10539 10538 10538 10537 10536 10534 10531 10528 10524 10519 10514 10510 10504
10406 10418 10431 10442 10446 10449 10457 10458 10456 10463 10485 10468 10501 10497 10534 10521 10523 10513 10517 10521 10516 10508 10512 10519 10518 10520 10522 10521 10518 10516 10516 10513 10511 10511 10511 10509 10508 10503 10498 10494 10490 10484 10478 10473
10391 10399 10410 10425 10428 10430 10430 10434 10448 10452 10456 10446 10468 10465 10503 10491 10488 10500 10496 10486 10482 10489 10493 10489 10491 10493 10495 10497 10494 10490 10489 10485 10484 10485 10482 10478 10478 10475 10468 10462 10457 10453 10448 10443
10377 10382 10392 10410 10407 10398 10396 10442 10426 10421 10428 10431 10424 10447 10446 10464 10473 10473 10462 10457 10463 10467 10462 10460 10465 10469 10472 10469 10464 10465 10458 10458 10455 10455 10453 10448 10445 10444 10439 10434 10428 10422 10418 10413
10365 10366 10368 10394 10383 10367 10408 10408 10408 10405 10406 10397 10389 10400 10424 10434 10439 10447 10438 10435 10439 10433 10435 10438 10439 10434 10433 10432 10433 10428 10429 10428 10424 10424 10420 10412 10407 10406 10405 10402 10396 10389 10386 10382
10348 10352 10356 10356 10357 10355 10371 10397 10380 10368 10371 10370 10378 10386 10380 10392 10398 10429 10419 10399 10410 10405 10405 10406 10404 10403 10401 10397 10391 10391 10394 10391 10389 10387 10381 10373 10368 10369 10367 10365 10361 10358 10353 10346
10325 10333 10330 10335 10337 10325 10366 10360 10352 10341 10340 10365 10348 10353 10357 10361 10365 10387 10380 10377 10375 10370 10369 10370 10368 10370 10369 10366 10358 10357 10357 10355 10354 10345 10342 10338 10336 10333 10329 10324 10324 10318 10314 10311
10301 10305 10313 10317 10311 10314 10331 10320 10320 10319 10336 10328 10327 10326 10330 10334 10332 10343 10346 10347 10343 10341 10335 10331 10334 10333 10328 10326 10321 10318 10318 10315 10308 10305 10300 10296 10296 10293 10290 10289 10287 10282 10279 10276
10277 10279 10284 10283 10281 10288 10299 10297 10294 10297 10303 10306 10310 10310 10303 10301 10302 10298 10300 10301 10303 10304 10298 10295 10296 10295 10293 10288 10283 10280 10279 10274 10271 10266 10263 10259 10257 10256 10252 10251 10251 10248 10245 10243
10250 10257 10256 10260 10268 10272 10281 10279 10281 10280 10283 10285 10286 10278 10268 10269 10267 10263 10263 10255 10254 10254 10253 10254 10255 10256 10252 10245 10240 10240 10236 10233 10227 10226 10220 10219 10216 10218 10215 10214 10211 10212 10209 10205
10227 10230 10236 10239 10255 10250 10260 10266 10262 10259 10259 10253 10247 10247 10239 10232 10225 10222 10219 10214 10206 10207 10212 10209 10212 10210 10208 10202 10195 10190 10188 10182 10179 10181 10175 10174 10175 10176 10172 10172 10169 10171 10172 10166
10216 10218 10220 10237 10244 10240 10242 10234 10229 10228 10225 10221 10215 10209 10203 10199 10193 10187 10183 10175 10169 10166 10162 10160 10161 10162 10161 10158 10154 10149 10144 10141 10137 10133 10131 10131 10130 10131 10130 10126 10125 10128 10131 10126
10197 10212 10220 10226 10213 10218 10210 10204 10202 10200 10195 10190 10186 10179 10172 10168 10165 10160 10154 10145 10138 10132 10125 10121 10117 10115 10114 10111 10109 10106 10104 10102 10099 10096 10093 10091 10090 10089 10090 10088 10087 10086 10086 10089